Location: Buckenweiler
(49.0667°N, 10.2500°E)
Time: 09:29:07
(UTC+00:00)

Meteor 1-16 Rocket - Pass Details

Date: 18 January 2026
Orbit: 789 x 905 km, 81.2° (Epoch: 14 February)

Event Time Altitude Azimuth Distance (km) Brightness Sun altitude
Rises 06:12:19 0° 185° (S) 3,361 7.5 -8.7°
Reaches altitude 10° 06:14:44 10° 184° (S) 2,415 6.8 -8.3°
Maximum altitude 06:20:10 77° 99° (E) 833 4.4 -7.5°
Drops below altitude 10° 06:25:30 10° 14° (NNE) 2,377 6.5 -6.7°
Sets 06:27:52 0° 14° (NNE) 3,304 7.2 -6.3°
